Regional Weather Roundup
Issued by NWS New Orleans/Baton Rouge, LA

Home | Current Version | Previous Version | Text Only | Print | Product List | Glossary On
Versions: 1 2 3 4 5 6 7 8 9 10 11 12 13 14 15 16 17 18 19 20 21 22 23 24 25 26 27 28 29 30 31 32 33 34 35 36 37 38 39 40 41 42 43 44 45 46 47 48 49 50
266
ASUS44 KLIX 232213
RWRLIX
NEW ORLEANS REGIONAL WEATHER ROUNDUP
NATIONAL WEATHER SERVICE NEW ORLEANS LA
500 PM CDT THU MAR 23 2017

NOTE: "FAIR" INDICATES FEW OR NO CLOUDS BELOW 12,000 FEET WITH NO
      SIGNIFICANT WEATHER AND/OR OBSTRUCTIONS TO VISIBILITY.
      SKY/WX - SKY CONDITION AND SIGNIFICANT WEATHER.
      TMP - AIR TEMPERATURE.     DP    - DEWPOINT TEMPERATURE.
      RH  - RELATIVE HUMIDITY.   PRES  - PRESSURE.
      HI  - HEAT INDEX.          WCI   - WIND CHILL INDEX.

*  THESE STATIONS ARE NOT NWS OR FAA STATIONS AND ARE NOT UNDER
   NWS QUALITY CONTROL.

LAZ038-040-048-061>063-065>067-069-232300-
SOUTHEAST LOUISIANA

CITY           SKY/WX    TMP DP  RH WIND       PRES   REMARKS
N.O. INTL ARPT MOSUNNY   81  63  54 SE9       30.16S
N.O. LAKEFRONT SUNNY     78  67  68 E16       30.17S
N.O. DOWNTOWN*   N/A     81  63  54 S13       30.17F
RESERVE*         N/A     82  61  48 E8        30.15S
SLIDELL        PTSUNNY   77  64  64 SE13      30.18R
BATON ROUGE    MOSUNNY   83  61  47 SE13      30.12F
BOOTHVILLE     PTSUNNY   73  68  84 E8        30.18S
BELLE CHASSE   MOSUNNY   81  66  61 E12       30.17S
BOGALUSA*        N/A     84  55  36 SE10G18   30.18S
GALLIANO*      CLEAR     78  63  61 E7        30.16F
NEW ROADS*       N/A     83  59  43 SE8       30.12F
GONZALES*      CLOUDY    83  62  47 E5        30.13S
HAMMOND*       SUNNY     79  61  53 SE12      30.16F
HOUMA*         SUNNY     81  66  61 SE8       30.15F
PORT FOURCHON* CLEAR     73  66  78 E10       30.16S

$$

MSZ070-080>082-232300-
SOUTHERN MISSISSIPPI

CITY           SKY/WX    TMP DP  RH WIND       PRES   REMARKS
MCCOMB         SUNNY     83  54  36 S10       30.14F
GULFPORT       CLOUDY    72  65  78 SE16      30.20S
BILOXI         MOSUNNY   73  64  75 E16       30.19F
PASCAGOULA     MOSUNNY   74  62  66 SE14G25   30.21S
STENNIS ARPT*  CLOUDY    73  61  64 E12G18    30.20S

$$

COASTAL OBSERVATIONS
LAKE AND NEARSHORE STATIONS

STATION/POSITION TIME  TEMP    WIND        PRES    WAVE
                       AIR SEA DIR/SP/G            HT/PER
                 (UTC) (F)     (DEG/KT/KT) (MB)    (FT/S)
PASCAGOULA       2142   72     110/ 17/ 22 1022.8
WAVELAND YACHT   2142   70 71  120/ 15/ 18 1022.4
GRAND ISLE       2142   75 72  120/  4/  8 1021.4
SOUTHWEST PASS   2136           80/ 10/ 10   N/A
NEW CANAL        2142   79 74  110/  2/ 11 1021.3
SHELL BEACH      2142   73 76  100/ 12/ 16 1022.0

OFFSHORE STATIONS

STATION/POSITION TIME  TEMP    WIND        PRES    WAVE
                       AIR SEA DIR/SP/G            HT/PER
                 (UTC) (F)     (DEG/KT/KT) (MB)    (FT/S)
64 S DAUPHIN ISL 2150   72 73   90/ 14/ 17 1022.0    3/ 6

$$





USA.gov is the U.S. government's official web portal to all federal, state and local government web resources and services.